TimeEST,TemperatureF,Dew PointF,Humidity,Sea Level PressureIn,VisibilityMPH,Wind Direction,Wind SpeedMPH,Gust SpeedMPH,PrecipitationIn,Events,Conditions,WindDirDegrees,DateUTC
12:54 AM,21.9,12.9,68,30.22,9.0,WNW,11.5,-,0.00,Snow,Light Snow,290,2013-01-21 05:54:00
1:54 AM,21.0,12.9,71,30.20,9.0,WNW,8.1,-,0.00,Snow,Light Snow,290,2013-01-21 06:54:00
2:54 AM,21.0,12.0,68,30.20,9.0,West,11.5,-,0.00,Snow,Light Snow,280,2013-01-21 07:54:00
3:25 AM,21.2,12.2,68,30.16,9.0,WNW,9.2,-,0.00,Snow,Light Snow,300,2013-01-21 08:25:00
3:54 AM,21.0,12.0,68,30.19,9.0,WNW,11.5,-,0.00,Snow,Light Snow,300,2013-01-21 08:54:00
4:54 AM,19.9,12.0,71,30.19,9.0,WNW,12.7,-,0.00,Snow,Light Snow,290,2013-01-21 09:54:00
5:54 AM,19.0,10.9,71,30.17,9.0,West,15.0,-,0.00,Snow,Light Snow,280,2013-01-21 10:54:00
6:54 AM,19.0,12.0,74,30.18,9.0,WNW,13.8,-,0.00,Snow,Light Snow,290,2013-01-21 11:54:00
7:54 AM,18.0,12.9,81,30.19,5.0,West,18.4,-,0.00,Snow,Light Snow,270,2013-01-21 12:54:00
8:54 AM,17.1,9.0,71,30.18,7.0,West,16.1,-,0.00,Snow,Light Snow,270,2013-01-21 13:54:00
9:46 AM,17.6,6.8,63,30.16,5.0,West,25.3,29.9,0.00,Snow,Light Snow,270,2013-01-21 14:46:00
9:54 AM,17.1,8.1,68,30.20,5.0,West,23.0,31.1,0.00,Snow,Light Snow,270,2013-01-21 14:54:00
10:27 AM,17.6,5.0,58,30.16,10.0,WNW,19.6,32.2,0.00,,Mostly Cloudy,290,2013-01-21 15:27:00
10:54 AM,16.0,7.0,68,30.21,6.0,West,16.1,-,0.00,Snow,Light Snow,280,2013-01-21 15:54:00
11:38 AM,15.8,3.2,58,30.18,10.0,West,25.3,31.1,0.00,,Mostly Cloudy,270,2013-01-21 16:38:00
11:54 AM,16.0,1.9,54,30.22,10.0,West,23.0,29.9,0.00,,Mostly Cloudy,280,2013-01-21 16:54:00
12:54 PM,18.0,1.9,50,30.21,9.0,WNW,24.2,29.9,0.00,,Mostly Cloudy,300,2013-01-21 17:54:00
1:54 PM,18.0,1.9,50,30.20,10.0,WNW,19.6,-,N/A,,Mostly Cloudy,290,2013-01-21 18:54:00
2:54 PM,17.1,-0.0,47,30.22,10.0,West,23.0,29.9,N/A,,Mostly Cloudy,280,2013-01-21 19:54:00
3:54 PM,16.0,-0.0,49,30.23,10.0,WNW,18.4,27.6,N/A,,Mostly Cloudy,300,2013-01-21 20:54:00
4:54 PM,14.0,-0.9,52,30.24,10.0,West,15.0,-,N/A,,Scattered Clouds,280,2013-01-21 21:54:00
5:54 PM,12.9,-0.0,56,30.26,10.0,WNW,15.0,-,N/A,,Scattered Clouds,290,2013-01-21 22:54:00
6:54 PM,12.0,-2.9,51,30.27,10.0,West,16.1,-,N/A,,Partly Cloudy,280,2013-01-21 23:54:00
7:54 PM,10.9,-4.0,51,30.28,10.0,West,15.0,-,N/A,,Clear,280,2013-01-22 00:54:00
8:54 PM,10.9,-2.9,54,30.29,10.0,West,15.0,-,N/A,,Scattered Clouds,270,2013-01-22 01:54:00
9:54 PM,10.0,-2.9,56,30.30,10.0,West,15.0,-,N/A,,Partly Cloudy,280,2013-01-22 02:54:00
10:54 PM,10.0,-2.9,56,30.31,10.0,West,17.3,-,N/A,,Partly Cloudy,280,2013-01-22 03:54:00
11:54 PM,10.0,-2.9,56,30.32,10.0,WNW,15.0,-,N/A,,Scattered Clouds,290,2013-01-22 04:54:00